Location: Clanezzo
(45.7500°N, 9.6000°E)
Time: 04:20:32
(UTC+00:00)

Cosmos 1544 - Pass Details

Date: 12 May 2021
Orbit: 471 x 487 km, 82.5° (Epoch: 18 June)

Event Time Altitude Azimuth Distance (km) Brightness Sun altitude
Rises 21:05:19 0° 356° (N) 2,537 7.8 -19.2°
Reaches altitude 10° 21:07:28 10° 3° (N) 1,656 6.5 -19.4°
Maximum altitude 21:10:58 46° 78° (ENE) 652 3.5 -19.7°
Enters shadow 21:11:03 46° 83° (E) 653 3.5 -19.7°
